Weather History for Wiscasset, ME

Change the Weather History Date:

Wednesday, February 6, 2013

  Actual Average Record
Temperature  
Mean Temperature 26 °F -  
Max Temperature 36 °F 30 °F 46 °F (2005)
Min Temperature 16 °F 10 °F -9 °F (2009)
Degree Days  
Heating Degree Days 38    
Moisture  
Dew Point 9 °F    
Average Humidity 53    
Maximum Humidity 68    
Minimum Humidity 29    
Precipitation  
Precipitation 0.00 in - - ()
Sea Level Pressure  
Sea Level Pressure 30.02 in    
Wind  
Wind Speed 2 mph (West)    
Max Wind Speed 10 mph    
Max Gust Speed 17 mph    
Visibility 10 miles    
Events      
Averages and records for this station are not official NWS values.
T = Trace of Precipitation, MM = Missing Value Source: NWS Daily Summary

Daily Weather History Graph

Daily Weather History Graph

Search for Another Location

Airport:

Trip Planner

Search our weather history database for the weather conditions in past years. The results will help you decide how hot, cold, wet, or windy it might be!

Date:

Astronomy

Feb. 06, 2013 Rise Set
Actual Time 6:49 AM EST 4:56 PM EST
Civil Twilight 6:19 AM EST 5:26 PM EST
Nautical Twilight 5:45 AM EST 6:01 PM EST
Astronomical Twilight 5:11 AM EST 6:34 PM EST
Moon 3:34 AM EST (2/6) 1:07 PM EST (2/6)
Length of Visible Light 11h 07m
Length of Day
10h 06m
Waning Crescent, 17% of the Moon is Illuminated
Feb 6
Waning Crescent
Feb 10
New
Feb 17
First Quarter
Feb 25
Full
Mar 4
Last Quarter

Hourly Weather History & Observations

Time (EST) Temp. Windchill Dew Point Humidity Pressure Visibility Wind Dir Wind Speed Gust Speed Precip Events Conditions
12:53 AM 17.1 °F - 3.0 °F 54% 29.99 in 10.0 mi Calm Calm - N/A   Overcast
1:53 AM 17.1 °F - 3.9 °F 56% 29.98 in 10.0 mi Calm Calm - N/A   Overcast
2:53 AM 17.1 °F - 5.0 °F 59% 29.96 in 10.0 mi Calm Calm - N/A   Overcast
3:53 AM 19.9 °F - 9.0 °F 62% 29.96 in 10.0 mi Calm Calm - N/A   Overcast
4:53 AM 19.0 °F - 9.0 °F 65% 29.97 in 10.0 mi Calm Calm - N/A   Overcast
5:53 AM 19.0 °F - 10.0 °F 68% 29.96 in 10.0 mi Calm Calm - 0.00 in   Mostly Cloudy
6:53 AM 19.0 °F - 10.0 °F 68% 29.98 in 10.0 mi Calm Calm - N/A   Overcast
7:53 AM 19.9 °F - 10.0 °F 65% 29.99 in 10.0 mi Calm Calm - N/A   Overcast
8:30 AM 19.4 °F - 10.4 °F 68% 29.99 in 10.0 mi Calm Calm - N/A   Overcast
8:53 AM 19.9 °F - 10.0 °F 65% 29.99 in 10.0 mi Calm Calm - N/A   Overcast
9:53 AM 25.0 °F - 12.9 °F 60% 29.99 in 10.0 mi Calm Calm - N/A   Overcast
10:31 AM 26.6 °F - 15.8 °F 64% 29.97 in 10.0 mi Calm Calm - N/A   Overcast
10:53 AM 30.0 °F 24.1 °F 17.1 °F 59% 29.97 in 10.0 mi WSW 5.8 mph - N/A   Mostly Cloudy
11:40 AM 30.2 °F 21.9 °F 17.6 °F 60% 29.95 in 10.0 mi SSW 9.2 mph - N/A   Overcast
11:53 AM 32.0 °F 24.2 °F 19.0 °F 59% 29.95 in 10.0 mi SW 9.2 mph - N/A   Overcast
12:53 PM 35.1 °F 27.4 °F 18.0 °F 50% 29.93 in 10.0 mi West 10.4 mph - N/A   Partly Cloudy
1:53 PM 36.0 °F 29.6 °F 18.0 °F 48% 29.93 in 10.0 mi WSW 8.1 mph - N/A   Scattered Clouds
2:53 PM 35.1 °F 31.0 °F 18.0 °F 50% 29.95 in 10.0 mi Variable 4.6 mph - N/A   Overcast
3:53 PM 34.0 °F 28.8 °F 15.1 °F 46% 29.97 in 10.0 mi Variable 5.8 mph - N/A   Clear
4:53 PM 32.0 °F - 17.1 °F 54% 30.01 in 10.0 mi Calm Calm - N/A   Clear
5:53 PM 30.0 °F 22.4 °F 10.0 °F 43% 30.06 in 10.0 mi NW 8.1 mph 17.3 mph N/A   Clear
6:53 PM 28.0 °F 19.3 °F 6.1 °F 39% 30.11 in 10.0 mi NW 9.2 mph - N/A   Clear
7:53 PM 26.1 °F 17.6 °F 3.0 °F 37% 30.14 in 10.0 mi WNW 8.1 mph 16.1 mph N/A   Clear
8:53 PM 24.1 °F 16.0 °F -2.9 °F 31% 30.18 in 10.0 mi Variable 6.9 mph - N/A   Clear
9:53 PM 21.0 °F 16.2 °F -4.0 °F 33% 30.22 in 10.0 mi Variable 3.5 mph - N/A   Clear
10:53 PM 19.0 °F 11.1 °F -9.0 °F 29% 30.25 in 10.0 mi Variable 5.8 mph - N/A   Clear
11:53 PM 16.0 °F 7.4 °F -8.0 °F 34% 30.29 in 10.0 mi Variable 5.8 mph - N/A   Clear